Lid_Strength_Index
5 7 9 7 7 7 7 8 8 7 6 7 7 7 7 7 7 7 5 5 5 4 3 2 2 1 1 1 1 1 1 0 1 1 1 1 1 0 -0 -1 -2 -1 -2 -2
7 9 6 5 6 7 7 8 8 6 6 6 7 7 8 8 8 7 6 7 5 4 3 3 2 2 2 2 1 1 1 1 1 1 1 0 0 0 -0 -1 -2 -2 -1 -2
8 7 5 6 7 7 8 9 8 8 7 6 7 9 8 7 6 7 7 5 4 4 4 3 3 2 2 2 1 1 1 1 1 0 0 0 0 0 1 0 0 -0 -2 -1
7 6 6 7 7 7 9 7 7 7 8 10 7 13 9 7 7 7 5 5 5 4 3 3 3 3 2 2 1 1 1 1 1 0 1 1 2 2 1 1 0 0 -1 -1
8 7 7 8 7 6 8 6 7 7 8 8 8 11 9 7 8 6 6 5 4 4 4 3 3 2 2 1 1 1 1 1 1 0 1 1 1 1 1 0 0 0 -0 -1
7 5 6 6 5 5 5 6 7 7 8 11 9 10 10 9 8 6 5 4 4 4 4 3 2 2 2 1 1 1 1 1 1 1 1 1 1 1 1 1 1 1 0 0
8 7 5 5 7 6 6 8 11 12 12 13 8 10 9 7 6 5 5 5 4 4 4 3 3 3 2 2 2 1 2 2 1 1 1 1 1 1 1 1 1 1 1 1
10 12 7 6 6 7 7 8 11 14 13 12 8 11 9 5 4 4 4 4 4 4 4 3 3 3 3 2 2 2 2 2 1 1 1 1 1 1 1 1 1 1 1 1
9 10 6 5 6 6 8 9 7 10 9 11 10 8 6 5 5 5 4 4 4 4 4 3 3 3 2 2 2 2 2 2 2 1 1 1 1 1 1 1 0 1 0 0
7 10 7 6 5 6 7 6 10 9 13 13 11 10 10 7 6 5 5 4 4 4 3 3 3 3 2 2 2 1 1 2 2 1 1 1 1 1 1 0 1 1 0 0
7 8 8 6 8 8 8 8 8 8 9 12 13 10 6 7 6 5 5 4 4 4 4 3 3 3 2 2 2 2 2 2 2 1 1 1 1 1 1 1 1 1 0 0
6 8 10 9 6 6 7 8 8 10 11 9 10 10 5 5 5 5 4 4 3 3 3 3 3 3 2 2 2 2 2 2 2 1 1 1 1 1 1 1 1 0 1 0
8 9 11 10 8 7 8 7 7 7 8 10 11 10 5 5 5 4 4 4 4 3 3 3 3 3 3 2 2 2 2 2 1 1 1 1 1 1 1 1 1 1 1 1
7 9 10 12 10 8 9 8 7 8 10 10 9 8 7 6 5 4 4 4 3 3 3 3 3 3 3 2 2 2 2 1 1 1 2 2 2 1 1 1 1 1 1 1
7 11 9 8 7 7 8 8 8 8 8 10 8 8 7 5 5 4 4 4 4 4 3 3 3 3 3 3 2 2 2 2 1 2 2 2 1 1 1 1 1 1 1 1
7 11 9 10 8 8 9 8 8 8 8 7 8 8 5 4 4 4 4 4 4 4 3 3 2 1 1 3 2 2 2 2 1 2 2 2 2 1 1 1 1 1 1 1
10 10 11 13 9 9 11 8 8 7 7 7 9 6 5 5 5 5 4 3 3 3 3 2 2 1 -0 1 2 2 2 1 2 2 2 2 2 2 2 1 1 1 1 1
11 10 10 12 11 16 9 6 6 7 6 6 6 5 5 5 4 4 3 3 3 3 3 2 2 2 2 2 1 2 2 2 2 2 2 2 2 2 2 2 2 2 1 2
9 10 11 13 13 11 9 7 7 8 8 5 6 5 5 4 4 4 3 2 2 2 1 2 2 2 1 2 1 2 2 2 2 2 2 2 2 2 2 2 2 2 2 2
9 9 11 11 14 15 9 6 5 5 10 5 5 5 5 5 7 6 4 3 3 3 3 3 2 2 2 2 1 2 2 2 3 2 2 1 1 2 2 2 2 1 1 2
12 12 13 12 13 10 8 7 6 11 12 6 6 6 5 6 6 4 3 3 3 3 2 2 2 2 2 1 2 1 0 2 2 2 2 2 2 2 2 2 1 2 2 2
10 12 12 11 12 14 7 7 10 8 5 5 5 5 5 5 4 4 3 3 3 3 3 2 3 2 2 1 1 2 2 1 0 1 2 2 2 2 2 2 2 2 2 2
11 9 10 10 10 6 6 7 6 6 6 6 6 6 5 6 6 6 5 3 3 3 3 2 3 3 2 2 1 2 2 1 1 2 2 2 2 2 1 2 2 2 2 3
7 5 8 8 8 7 7 6 6 6 6 6 6 6 6 6 7 6 5 3 3 3 3 3 3 3 3 1 1 1 1 1 2 2 2 2 2 2 2 2 2 2 2 3
7 7 8 9 7 7 7 7 7 7 6 6 6 6 6 6 7 6 4 3 3 3 3 3 3 3 3 2 2 1 1 1 2 2 2 2 2 2 2 2 4 2 5 6
6 7 9 10 7 7 7 6 6 7 7 6 6 6 6 5 5 4 4 3 3 3 3 3 3 3 3 2 2 2 2 1 2 3 3 3 2 2 2 4 6 17 17 18